User: anonymous   Login
Location: Unspecified
(0.0000°N, 0.0000°E)
Time: 19:03:31
(UTC+00:00)
Language:

TBA - TO BE ASSIGNED - Orbit

View from above orbital plane
View from above orbital plane
View from above satellite
View from above satellite

Ground track
Ground track

The orbit is defined by the following mean orbital elements,

1 67682U          26145.13548508 +.00000000 +00000-0 +41334-3 0 00002
2 67682  96.6266 211.8047 0021242 196.4411 163.6143 15.24873932    04
Epoch (UTC): 25 May 2026 03:15:05
Eccentricity: 0.0021242
inclination: 96.6266°
perigee height: 477 km
apogee height: 506 km
right ascension of ascending node: 211.8047°
argument of perigee: 196.4411°
revolutions per day: 15.24873932
mean anomaly at epoch: 163.6143°

The dashed part of the orbit path shows where the satellite is in the earth's shadow,  

DLR